Location: Bambrugge
(50.9212°N, 3.9299°E)
Time: 20:49:15
(UTC+00:00)

SL-16 R/B - Pass Details

Date: 09 August 2024
Orbit: 842 x 845 km, 71.0° (Epoch: 10 September)

Event Time Altitude Azimuth Distance (km) Brightness Sun altitude
Exits shadow 23:15:03 30° 109° (ESE) 1,485 3.2 -23.2°
Maximum altitude 23:15:17 30° 105° (ESE) 1,482 3.2 -23.2°
Drops below altitude 10° 23:20:07 10° 46° (NE) 2,474 5.1 -23.3°
Sets 23:22:50 0° 36° (NE) 3,415 6.0 -23.3°
